| time (UTC) | temp F | wind direction | speed knots | gust knots | rain 1hr in | rain 24hr in | rain mn in | humidity % | barometer mb |
| 20260508085657 | 38 | 144 | 0.0 | 0.0 | 0.00 | 0.00 | 0.00 | 86 | 1016.7 |
| 20260508082655 | 38 | 144 | 0.0 | 0.0 | 0.00 | 0.00 | 0.00 | 84 | 1016.7 |
| 20260508075650 | 39 | 156 | 0.0 | 0.0 | 0.00 | 0.00 | 0.00 | 82 | 1016.3 |
| 20260508072650 | 41 | 130 | 0.0 | 0.0 | 0.00 | 0.00 | 0.00 | 78 | 1016.3 |
| 20260508065647 | 42 | 150 | 0.0 | 0.0 | 0.00 | 0.00 | 0.00 | 76 | 1016.7 |
| 20260508062644 | 47 | 18 | 0.9 | 0.9 | 0.00 | 0.00 | 0.00 | 63 | 1016.3 |
| 20260508055642 | 50 | 4 | 1.7 | 1.7 | 0.00 | 0.00 | 0.00 | 57 | 1016.3 |
| 20260508052642 | 50 | 359 | 1.7 | 1.7 | 0.00 | 0.00 | 0.00 | 55 | 1016.3 |
| 20260508045637 | 51 | 346 | 2.6 | 2.6 | 0.00 | 0.00 | 0.00 | 56 | 1016.0 |
| 20260508042636 | 52 | 342 | 3.5 | 3.5 | 0.00 | 0.00 | 0.00 | 54 | 1015.6 |
| 20260508035635 | 54 | 359 | 2.6 | 2.6 | 0.00 | 0.00 | 0.00 | 49 | 1015.6 |
| 20260508032630 | 55 | 341 | 3.5 | 3.5 | 0.00 | 0.00 | 0.00 | 47 | 1014.9 |
| 20260508025629 | 54 | 288 | 1.7 | 1.7 | 0.00 | 0.00 | 0.00 | 49 | 1014.5 |
| 20260508022626 | 53 | 216 | 0.0 | 0.0 | 0.00 | 0.00 | 0.00 | 53 | 1014.5 |
| 20260508015625 | 55 | 6 | 2.6 | 2.6 | 0.00 | 0.00 | 0.00 | 48 | 1013.9 |
| 20260508012622 | 55 | 354 | 1.7 | 1.7 | 0.00 | 0.00 | 0.00 | 47 | 1013.9 |
| 20260508005617 | 56 | 348 | 1.7 | 1.7 | 0.00 | 0.00 | 0.00 | 49 | 1013.2 |
| 20260508002615 | 57 | 315 | 0.0 | 0.0 | 0.00 | 0.00 | 0.00 | 49 | 1012.9 |
| 20260507235612 | 59 | 324 | 3.5 | 3.5 | 0.00 | 0.00 | 0.00 | 43 | 1012.5 |
| 20260507232612 | 60 | 355 | 3.5 | 4.3 | 0.00 | 0.00 | 0.00 | 42 | 1012.5 |
| 20260507225608 | 61 | 336 | 2.6 | 2.6 | 0.00 | 0.00 | 0.00 | 42 | 1012.1 |
| 20260507222605 | 63 | 24 | 2.6 | 2.6 | 0.00 | 0.00 | 0.00 | 37 | 1011.7 |
| 20260507215602 | 65 | 318 | 3.5 | 4.3 | 0.00 | 0.00 | 0.00 | 36 | 1011.4 |
| 20260507212559 | 66 | 338 | 1.7 | 1.7 | 0.00 | 0.00 | 0.00 | 34 | 1011.4 |
| 20260507205557 | 65 | 276 | 5.2 | 6.1 | 0.00 | 0.00 | 0.00 | 35 | 1011.4 |
| 20260507202555 | 66 | 332 | 2.6 | 2.6 | 0.00 | 0.00 | 0.00 | 33 | 1011.4 |
| 20260507195550 | 65 | 12 | 1.7 | 1.7 | 0.00 | 0.00 | 0.00 | 34 | 1011.7 |
| 20260507192547 | 67 | 293 | 3.5 | 3.5 | 0.00 | 0.00 | 0.00 | 36 | 1012.1 |
| 20260507185543 | 65 | 348 | 2.6 | 2.6 | 0.00 | 0.00 | 0.00 | 36 | 1012.1 |
| 20260507182542 | 63 | 351 | 2.6 | 2.6 | 0.00 | 0.00 | 0.00 | 39 | 1012.5 |
| 20260507175538 | 64 | 59 | 1.7 | 1.7 | 0.00 | 0.00 | 0.00 | 39 | 1012.9 |
| 20260507172538 | 63 | 234 | 1.7 | 1.7 | 0.00 | 0.00 | 0.00 | 39 | 1013.5 |
| 20260507165535 | 61 | 24 | 1.7 | 1.7 | 0.00 | 0.00 | 0.00 | 46 | 1013.9 |
| 20260507162532 | 62 | 31 | 1.7 | 1.7 | 0.00 | 0.00 | 0.00 | 41 | 1013.9 |
| 20260507155528 | 60 | 312 | 3.5 | 3.5 | 0.00 | 0.00 | 0.00 | 45 | 1014.9 |
| 20260507152525 | 59 | 29 | 2.6 | 2.6 | 0.00 | 0.00 | 0.00 | 47 | 1014.9 |
| 20260507145521 | 57 | 300 | 1.7 | 1.7 | 0.00 | 0.00 | 0.00 | 50 | 1015.2 |
| 20260507142520 | 55 | 198 | 1.7 | 1.7 | 0.00 | 0.00 | 0.00 | 58 | 1016.0 |
| 20260507135520 | 54 | 352 | 1.7 | 1.7 | 0.00 | 0.00 | 0.00 | 52 | 1016.7 |
| 20260507132517 | 53 | 264 | 1.7 | 1.7 | 0.00 | 0.00 | 0.00 | 56 | 1016.7 |
| 20260507125518 | 51 | 328 | 2.6 | 2.6 | 0.00 | 0.00 | 0.00 | 59 | 1016.7 |
| 20260507122515 | 50 | 108 | 0.0 | 0.0 | 0.00 | 0.00 | 0.00 | 63 | 1016.7 |
| 20260507115511 | 50 | 354 | 0.0 | 0.0 | 0.00 | 0.00 | 0.00 | 63 | 1016.7 |
| 20260507112509 | 49 | 174 | 0.0 | 0.0 | 0.00 | 0.00 | 0.00 | 64 | 1016.3 |
| 20260507105506 | 49 | 120 | 1.7 | 1.7 | 0.00 | 0.00 | 0.00 | 66 | 1016.0 |
| 20260507102504 | 48 | 72 | 0.0 | 0.0 | 0.00 | 0.00 | 0.00 | 71 | 1015.6 |
| 20260507095502 | 49 | 96 | 0.0 | 0.0 | 0.00 | 0.00 | 0.00 | 63 | 1015.6 |
| 20260507092502 | 49 | 72 | 0.0 | 0.0 | 0.00 | 0.00 | 0.00 | 65 | 1015.2 |